VYA406 ZUCK-ZUNC

Flight info

Callsign VYA406
Flight time 0h 38m
Altitude 6500
Route ZUCK PINAB ZUNC
Aircraft C172/L-V/N

Departure

Time 2026-05-04 19:16
Airport Chongqing Jiangbei International Airport (ZUCK)

Arrival

Time 2026-05-04 19:55
Airport Nanchong Gaoping Airport (ZUNC)
Time Latitude Longitude Altitude Speed Heading
2026-05-04 19:12 29.73436 106.64879 1339 ft 0 kts 101°
2026-05-04 19:14 29.73434 106.64903 1339 ft 8 kts 92°
2026-05-04 19:15 29.73418 106.65005 1339 ft 15 kts 120°
2026-05-04 19:15 29.73362 106.65065 1348 ft 19 kts 187°
2026-05-04 19:15 29.73067 106.64963 1346 ft 68 kts 195°
2026-05-04 19:15 29.72531 106.64788 1454 ft 88 kts 194°
2026-05-04 19:16 29.71918 106.64601 1685 ft 89 kts 198°
2026-05-04 19:16 29.71336 106.64404 1946 ft 88 kts 197°
2026-05-04 19:16 29.70758 106.64185 2217 ft 87 kts 197°
2026-05-04 19:16 29.70195 106.63956 2509 ft 85 kts 197°
2026-05-04 19:17 29.69640 106.63720 2774 ft 84 kts 198°
2026-05-04 19:17 29.69096 106.63490 3038 ft 82 kts 197°
2026-05-04 19:17 29.68682 106.63069 3216 ft 91 kts 258°
2026-05-04 19:17 29.68731 106.62309 3480 ft 97 kts 266°
2026-05-04 19:18 29.68753 106.61532 3865 ft 97 kts 267°
2026-05-04 19:18 29.68785 106.60768 4104 ft 97 kts 268°
2026-05-04 19:18 29.68822 106.59993 4390 ft 98 kts 268°
2026-05-04 19:18 29.69103 106.59221 4510 ft 120 kts 308°
2026-05-04 19:19 29.69665 106.58450 4529 ft 131 kts 306°
2026-05-04 19:19 29.70278 106.57622 4510 ft 141 kts 317°
2026-05-04 19:19 29.71185 106.57176 4517 ft 145 kts 348°
2026-05-04 19:19 29.72165 106.56956 4631 ft 136 kts 349°
2026-05-04 19:20 29.73048 106.56728 4893 ft 128 kts 345°
2026-05-04 19:20 29.73922 106.56467 5000 ft 130 kts 344°
2026-05-04 19:20 29.74782 106.56199 5182 ft 129 kts 343°
2026-05-04 19:20 29.75647 106.55917 5276 ft 129 kts 343°
2026-05-04 19:21 29.76512 106.55641 5350 ft 129 kts 342°
2026-05-04 19:21 29.77374 106.55363 5524 ft 128 kts 343°
2026-05-04 19:21 29.78235 106.55083 5640 ft 129 kts 343°
2026-05-04 19:21 29.79056 106.54817 5935 ft 114 kts 344°
2026-05-04 19:22 29.79810 106.54571 6112 ft 113 kts 342°
2026-05-04 19:22 29.80571 106.54325 6241 ft 113 kts 343°
2026-05-04 19:22 29.81325 106.54080 6388 ft 113 kts 342°
2026-05-04 19:22 29.82071 106.53839 6490 ft 114 kts 343°
2026-05-04 19:23 29.82870 106.53580 6507 ft 124 kts 343°
2026-05-04 19:23 29.83708 106.53310 6507 ft 127 kts 343°
2026-05-04 19:23 29.84579 106.53030 6515 ft 133 kts 343°
2026-05-04 19:23 29.85471 106.52742 6515 ft 132 kts 343°
2026-05-04 19:24 29.86353 106.52457 6510 ft 132 kts 342°
2026-05-04 19:24 29.87233 106.52171 6506 ft 131 kts 342°
2026-05-04 19:24 29.88109 106.51885 6512 ft 135 kts 342°
2026-05-04 19:24 29.89005 106.51595 6500 ft 132 kts 343°
2026-05-04 19:25 29.89869 106.51315 6498 ft 130 kts 342°
2026-05-04 19:25 29.90749 106.51030 6509 ft 134 kts 343°
2026-05-04 19:25 29.91653 106.50736 6496 ft 134 kts 342°
2026-05-04 19:25 29.92541 106.50447 6495 ft 131 kts 342°
2026-05-04 19:26 29.93424 106.50160 6507 ft 133 kts 342°
2026-05-04 19:26 29.94321 106.49870 6513 ft 135 kts 342°
2026-05-04 19:26 29.95221 106.49578 6503 ft 134 kts 342°
2026-05-04 19:26 29.96118 106.49286 6518 ft 134 kts 343°
2026-05-04 19:27 29.97008 106.48998 6512 ft 131 kts 342°
2026-05-04 19:27 29.97872 106.48716 6497 ft 128 kts 342°
2026-05-04 19:27 29.98723 106.48436 6512 ft 129 kts 342°
2026-05-04 19:27 29.99598 106.48155 6511 ft 132 kts 342°
2026-05-04 19:28 30.00478 106.47870 6502 ft 131 kts 343°
2026-05-04 19:28 30.01355 106.47583 6499 ft 129 kts 342°
2026-05-04 19:28 30.02207 106.47304 6515 ft 127 kts 342°
2026-05-04 19:28 30.03054 106.47029 6509 ft 127 kts 342°
2026-05-04 19:29 30.03911 106.46751 6503 ft 127 kts 342°
2026-05-04 19:29 30.04759 106.46473 6497 ft 126 kts 342°
2026-05-04 19:29 30.05602 106.46198 6501 ft 127 kts 342°
2026-05-04 19:29 30.06465 106.45918 6508 ft 129 kts 342°
2026-05-04 19:30 30.07317 106.45640 6499 ft 126 kts 342°
2026-05-04 19:30 30.08163 106.45363 6497 ft 125 kts 342°
2026-05-04 19:30 30.09002 106.45089 6500 ft 125 kts 342°
2026-05-04 19:30 30.09841 106.44817 6499 ft 125 kts 342°
2026-05-04 19:31 30.10660 106.44549 6499 ft 120 kts 342°
2026-05-04 19:31 30.11464 106.44286 6497 ft 121 kts 342°
2026-05-04 19:31 30.12277 106.44020 6497 ft 121 kts 342°
2026-05-04 19:31 30.13091 106.43754 6499 ft 125 kts 342°
2026-05-04 19:32 30.13916 106.43486 6499 ft 122 kts 342°
2026-05-04 19:32 30.14737 106.43218 6499 ft 124 kts 342°
2026-05-04 19:32 30.15565 106.42949 6501 ft 124 kts 342°
2026-05-04 19:32 30.16391 106.42676 6504 ft 124 kts 342°
2026-05-04 19:33 30.17220 106.42407 6504 ft 123 kts 342°
2026-05-04 19:33 30.18043 106.42139 6500 ft 122 kts 341°
2026-05-04 19:33 30.18869 106.41871 6502 ft 125 kts 342°
2026-05-04 19:33 30.19698 106.41598 6504 ft 123 kts 341°
2026-05-04 19:34 30.20515 106.41330 6510 ft 127 kts 341°
2026-05-04 19:34 30.21369 106.41052 6498 ft 127 kts 342°
2026-05-04 19:34 30.22207 106.40778 6501 ft 124 kts 341°
2026-05-04 19:34 30.23036 106.40507 6497 ft 123 kts 341°
2026-05-04 19:35 30.23862 106.40238 6494 ft 124 kts 342°
2026-05-04 19:35 30.24692 106.39966 6491 ft 124 kts 341°
2026-05-04 19:35 30.25515 106.39695 6494 ft 122 kts 341°
2026-05-04 19:35 30.26343 106.39425 6495 ft 126 kts 341°
2026-05-04 19:36 30.27178 106.39152 6510 ft 129 kts 341°
2026-05-04 19:36 30.28047 106.38866 6498 ft 130 kts 342°
2026-05-04 19:36 30.28912 106.38588 6501 ft 129 kts 342°
2026-05-04 19:36 30.29772 106.38305 6493 ft 129 kts 341°
2026-05-04 19:37 30.30624 106.38026 6492 ft 126 kts 341°
2026-05-04 19:37 30.31465 106.37750 6503 ft 127 kts 341°
2026-05-04 19:37 30.32312 106.37473 6500 ft 126 kts 342°
2026-05-04 19:37 30.33158 106.37197 6491 ft 125 kts 341°
2026-05-04 19:38 30.33986 106.36924 6490 ft 123 kts 341°
2026-05-04 19:38 30.34794 106.36656 6488 ft 123 kts 341°
2026-05-04 19:38 30.35622 106.36385 6491 ft 124 kts 341°
2026-05-04 19:38 30.36448 106.36114 6493 ft 123 kts 341°
2026-05-04 19:39 30.37278 106.35840 6500 ft 124 kts 341°
2026-05-04 19:39 30.38123 106.35567 6501 ft 128 kts 341°
2026-05-04 19:39 30.38995 106.35281 6504 ft 133 kts 341°
2026-05-04 19:39 30.39866 106.34995 6496 ft 127 kts 341°
2026-05-04 19:40 30.40710 106.34719 6500 ft 126 kts 341°
2026-05-04 19:40 30.41548 106.34443 6499 ft 126 kts 341°
2026-05-04 19:40 30.42376 106.34170 6500 ft 125 kts 341°
2026-05-04 19:40 30.43224 106.33891 6489 ft 126 kts 341°
2026-05-04 19:41 30.44064 106.33615 6487 ft 126 kts 341°
2026-05-04 19:41 30.44914 106.33337 6491 ft 128 kts 341°
2026-05-04 19:41 30.45775 106.33056 6497 ft 128 kts 341°
2026-05-04 19:41 30.46631 106.32771 6504 ft 130 kts 340°
2026-05-04 19:42 30.47520 106.32481 6382 ft 136 kts 341°
2026-05-04 19:42 30.48436 106.32184 6187 ft 137 kts 341°
2026-05-04 19:42 30.49351 106.31867 6005 ft 140 kts 336°
2026-05-04 19:42 30.50204 106.31332 5794 ft 139 kts 325°
2026-05-04 19:43 30.51015 106.30704 5598 ft 141 kts 316°
2026-05-04 19:43 30.51677 106.29864 5406 ft 140 kts 308°
2026-05-04 19:43 30.52315 106.29002 5206 ft 141 kts 309°
2026-05-04 19:43 30.52947 106.28148 5029 ft 141 kts 308°
2026-05-04 19:44 30.53516 106.27227 4826 ft 141 kts 298°
2026-05-04 19:44 30.54003 106.26257 4628 ft 138 kts 297°
2026-05-04 19:44 30.54496 106.25279 4437 ft 142 kts 298°
2026-05-04 19:44 30.54823 106.24626 4301 ft 141 kts 298°
2026-05-04 19:45 30.55469 106.23315 4036 ft 140 kts 298°
2026-05-04 19:45 30.55950 106.22340 3852 ft 142 kts 298°
2026-05-04 19:45 30.56436 106.21333 3647 ft 143 kts 298°
2026-05-04 19:45 30.56913 106.20340 3467 ft 140 kts 298°
2026-05-04 19:46 30.57383 106.19347 3274 ft 140 kts 298°
2026-05-04 19:46 30.57843 106.18365 3071 ft 138 kts 298°
2026-05-04 19:46 30.58147 106.17709 2932 ft 140 kts 298°
2026-05-04 19:46 30.58600 106.16712 2748 ft 138 kts 298°
2026-05-04 19:47 30.59205 106.15396 2509 ft 141 kts 301°
2026-05-04 19:47 30.59745 106.14503 2494 ft 130 kts 308°
2026-05-04 19:47 30.60284 106.13671 2488 ft 128 kts 308°
2026-05-04 19:47 30.60901 106.12949 2488 ft 125 kts 323°
2026-05-04 19:48 30.61356 106.12543 2493 ft 125 kts 324°
2026-05-04 19:48 30.62107 106.12064 2485 ft 121 kts 340°
2026-05-04 19:48 30.62901 106.11712 2486 ft 123 kts 343°
2026-05-04 19:48 30.63724 106.11423 2484 ft 124 kts 346°
2026-05-04 19:49 30.64544 106.11143 2488 ft 123 kts 346°
2026-05-04 19:49 30.65365 106.10861 2488 ft 123 kts 346°
2026-05-04 19:49 30.66198 106.10582 2483 ft 125 kts 346°
2026-05-04 19:49 30.67282 106.10217 2489 ft 123 kts 346°
2026-05-04 19:50 30.67840 106.10030 2501 ft 125 kts 345°
2026-05-04 19:50 30.68680 106.09749 2486 ft 126 kts 346°
2026-05-04 19:50 30.69515 106.09411 2501 ft 130 kts 341°
2026-05-04 19:50 30.70370 106.09037 2495 ft 132 kts 342°
2026-05-04 19:51 30.71223 106.08659 2500 ft 131 kts 341°
2026-05-04 19:51 30.72059 106.08289 2483 ft 125 kts 341°
2026-05-04 19:51 30.72867 106.07934 2487 ft 122 kts 341°
2026-05-04 19:51 30.73632 106.07603 2478 ft 113 kts 341°
2026-05-04 19:52 30.74361 106.07611 2487 ft 108 kts 37°
2026-05-04 19:52 30.74946 106.08124 2484 ft 108 kts 39°
2026-05-04 19:52 30.75483 106.08723 2530 ft 108 kts 55°
2026-05-04 19:52 30.75930 106.09432 2540 ft 108 kts 59°
2026-05-04 19:53 30.76341 106.10187 2420 ft 112 kts 63°
2026-05-04 19:53 30.76754 106.10970 2236 ft 116 kts 59°
2026-05-04 19:53 30.77176 106.11751 2058 ft 111 kts 64°
2026-05-04 19:53 30.77564 106.12511 1916 ft 107 kts 59°
2026-05-04 19:54 30.77942 106.13223 1793 ft 99 kts 61°
2026-05-04 19:54 30.78281 106.13871 1634 ft 89 kts 60°
2026-05-04 19:54 30.78579 106.14432 1432 ft 72 kts 60°
2026-05-04 19:54 30.78850 106.14939 1282 ft 73 kts 60°
2026-05-04 19:55 30.79097 106.15411 1185 ft 59 kts 59°
2026-05-04 19:55 30.79251 106.15705 1169 ft 30 kts 53°
2026-05-04 19:55 30.79350 106.15902 1162 ft 22 kts 78°
2026-05-04 19:55 30.79311 106.16002 1158 ft 17 kts 148°
2026-05-04 19:56 30.79186 106.16053 1158 ft 10 kts 221°
2026-05-04 19:56 30.79131 106.15967 1163 ft 4 kts 172°
2026-05-04 19:56 30.79110 106.15982 1163 ft 0 kts 145°